Weather History for Delta, CO

Change the Weather History Date:

Monday, January 28, 2013

  Actual Average (KMTJ) Record (KMTJ)
Temperature  
Mean Temperature 36 °F 28 °F  
Max Temperature 42 °F 40 °F 54 °F (2015)
Min Temperature 29 °F 17 °F 9 °F (2009)
Degree Days  
Heating Degree Days 30 37  
Month to date heating degree days 1088  
Since 1 July heating degree days 3696  
Cooling Degree Days 0 0  
Month to date cooling degree days 0  
Year to date cooling degree days 0  
Moisture  
Dew Point 32 °F    
Average Humidity 79    
Maximum Humidity 96    
Minimum Humidity 61    
Precipitation  
Precipitation 0.03 in 0.01 in 0.09 in (2013)
Month to date precipitation 0.59  
Year to date precipitation 0.59  
Sea Level Pressure  
Sea Level Pressure 29.76 in    
Wind  
Wind Speed 7 mph (WSW)    
Max Wind Speed 21 mph    
Max Gust Speed 28 mph    
Visibility 10 miles    
Events Rain , Snow    
T = Trace of Precipitation, MM = Missing Value Source: NWS Daily Summary

Daily Weather History Graph

Daily Weather History Graph

Search for Another Location

Airport:

Trip Planner

Search our weather history database for the weather conditions in past years. The results will help you decide how hot, cold, wet, or windy it might be!

Date:

Astronomy

Jan. 28, 2013 Rise Set
Actual Time 7:21 AM MST 5:29 PM MST
Civil Twilight 6:53 AM MST 5:57 PM MST
Nautical Twilight 6:21 AM MST 6:30 PM MST
Astronomical Twilight 5:49 AM MST 7:01 PM MST
Moon 7:25 PM MST (1/28) 7:50 AM MST (1/28)
Length of Visible Light 11h 04m
Length of Day
10h 08m
Full, 97% of the Moon is Illuminated
Jan 28
Full
Feb 3
Last Quarter
Feb 10
New
Feb 17
First Quarter
Feb 25
Full

Hourly Weather History & Observations

Time (MST) Temp. Windchill Dew Point Humidity Pressure Visibility Wind Dir Wind Speed Gust Speed Precip Events Conditions
12:15 AM 42.1 °F 36.1 °F 37.4 °F 83% 29.82 in 10.0 mi SSW 10.4 mph 25.3 mph 0.02 in Rain Light Rain
12:35 AM 41.5 °F 37.8 °F 37.4 °F 85% 29.81 in 10.0 mi NNW 5.8 mph - 0.02 in   Overcast
12:55 AM 39.7 °F 36.5 °F 36.7 °F 89% 29.79 in 10.0 mi NNW 4.6 mph - 0.02 in   Mostly Cloudy
1:15 AM 41.2 °F 37.3 °F 37.8 °F 88% 29.81 in 7.0 mi SSW 5.8 mph 17.3 mph N/A Rain Rain
1:55 AM 42.8 °F 38.0 °F 37.4 °F 81% 29.79 in 10.0 mi West 8.1 mph - 0.01 in Rain Light Rain
2:15 AM 41.9 °F 37.5 °F 36.5 °F 81% 29.77 in 10.0 mi WNW 6.9 mph - N/A   Scattered Clouds
2:35 AM 41.4 °F 36.8 °F 36.0 °F 81% 29.77 in 10.0 mi NW 6.9 mph - N/A   Clear
2:55 AM 40.1 °F 34.7 °F 35.4 °F 83% 29.77 in 10.0 mi East 8.1 mph - N/A   Clear
3:15 AM 39.4 °F 34.5 °F 36.0 °F 88% 29.78 in 10.0 mi East 6.9 mph - N/A   Scattered Clouds
3:35 AM 38.7 °F 34.3 °F 35.6 °F 89% 29.77 in 10.0 mi ENE 5.8 mph - N/A   Mostly Cloudy
3:55 AM 39.2 °F 33.6 °F 35.6 °F 87% 29.75 in 10.0 mi NE 8.1 mph - N/A   Overcast
4:15 AM 39.0 °F 33.4 °F 35.6 °F 88% 29.75 in 10.0 mi East 8.1 mph - N/A   Mostly Cloudy
4:35 AM 39.2 °F 34.2 °F 35.8 °F 88% 29.74 in 10.0 mi NE 6.9 mph - N/A   Scattered Clouds
5:15 AM 39.2 °F 35.9 °F 35.8 °F 88% 29.73 in 10.0 mi NE 4.6 mph - N/A   Overcast
5:35 AM 39.2 °F 34.2 °F 35.6 °F 87% 29.72 in 10.0 mi NE 6.9 mph - N/A   Overcast
5:55 AM 39.2 °F 37.0 °F 35.6 °F 87% 29.72 in 10.0 mi NE 3.5 mph - N/A   Overcast
6:15 AM 39.7 °F 33.7 °F 35.2 °F 84% 29.72 in 10.0 mi NNE 9.2 mph - N/A   Overcast
6:35 AM 39.4 °F 34.5 °F 35.2 °F 85% 29.71 in 10.0 mi NNE 6.9 mph - N/A   Overcast
6:55 AM 39.2 °F - 35.2 °F 86% 29.72 in 10.0 mi Calm Calm - N/A   Overcast
7:15 AM 40.3 °F 37.1 °F 35.1 °F 82% 29.73 in 10.0 mi SSE 4.6 mph - N/A   Light Drizzle
7:35 AM 40.1 °F 33.6 °F 33.8 °F 78% 29.74 in 10.0 mi SW 10.4 mph 17.3 mph N/A   Overcast
7:55 AM 39.6 °F 33.0 °F 34.7 °F 83% 29.75 in 10.0 mi WSW 10.4 mph 16.1 mph N/A Rain Light Rain
8:15 AM 39.0 °F 34.8 °F 34.5 °F 84% 29.75 in 10.0 mi WSW 5.8 mph - N/A Rain Rain
8:35 AM 39.4 °F 32.3 °F 33.3 °F 79% 29.75 in 10.0 mi WSW 11.5 mph - N/A   Overcast
8:55 AM 39.2 °F 31.6 °F 32.2 °F 76% 29.76 in 10.0 mi WSW 12.7 mph 23.0 mph N/A   Overcast
9:15 AM 39.2 °F 31.6 °F 32.4 °F 76% 29.75 in 10.0 mi WSW 12.7 mph 18.4 mph N/A   Overcast
9:35 AM 38.7 °F 32.9 °F 33.1 °F 80% 29.75 in 10.0 mi SSW 8.1 mph - N/A   Overcast
9:55 AM 38.5 °F 34.1 °F 34.0 °F 84% 29.77 in 10.0 mi SSW 5.8 mph - N/A   Overcast
10:15 AM 38.5 °F 35.0 °F 33.3 °F 81% 29.77 in 10.0 mi South 4.6 mph - N/A   Overcast
10:35 AM 38.5 °F 36.1 °F 34.0 °F 84% 29.77 in 10.0 mi SSW 3.5 mph - N/A   Overcast
10:55 AM 38.7 °F - 33.8 °F 83% 29.77 in 10.0 mi Calm Calm - N/A   Overcast
11:15 AM 39.4 °F 37.2 °F 34.3 °F 82% 29.77 in 10.0 mi East 3.5 mph - N/A   Overcast
11:35 AM 39.6 °F - 34.3 °F 82% 29.77 in 10.0 mi Calm Calm - N/A   Mostly Cloudy
11:55 AM 40.5 °F 38.4 °F 34.5 °F 79% 29.76 in 10.0 mi West 3.5 mph - N/A   Overcast
12:15 PM 40.1 °F - 33.8 °F 78% 29.75 in 10.0 mi Calm Calm - N/A Rain Light Rain
12:35 PM 40.5 °F - 34.2 °F 78% 29.75 in 10.0 mi Calm Calm - N/A   Mostly Cloudy
12:55 PM 40.8 °F 36.9 °F 35.1 °F 80% 29.75 in 10.0 mi SW 5.8 mph - N/A   Overcast
1:15 PM 41.0 °F 35.2 °F 34.3 °F 77% 29.75 in 10.0 mi WSW 9.2 mph - N/A   Overcast
1:35 PM 41.9 °F 33.7 °F 29.5 °F 61% 29.75 in 10.0 mi SW 17.3 mph - N/A   Overcast
1:55 PM 40.6 °F 33.8 °F 29.8 °F 65% 29.75 in 10.0 mi SSW 11.5 mph 18.4 mph N/A   Overcast
2:15 PM 40.3 °F 33.9 °F 31.6 °F 71% 29.75 in 10.0 mi South 10.4 mph - N/A   Overcast
2:35 PM 41.2 °F 35.5 °F 30.6 °F 66% 29.74 in 10.0 mi South 9.2 mph - N/A   Mostly Cloudy
2:55 PM 41.4 °F 36.2 °F 29.8 °F 64% 29.75 in 10.0 mi SSE 8.1 mph - N/A   Overcast
3:15 PM 40.6 °F 35.4 °F 29.5 °F 64% 29.76 in 10.0 mi South 8.1 mph - N/A   Overcast
3:35 PM 41.0 °F 35.2 °F 28.6 °F 61% 29.76 in 10.0 mi South 9.2 mph - N/A   Overcast
3:55 PM 38.8 °F 32.1 °F 30.4 °F 72% 29.75 in 10.0 mi South 10.4 mph 17.3 mph N/A   Overcast
4:15 PM 38.5 °F 31.6 °F 30.6 °F 73% 29.75 in 10.0 mi South 10.4 mph - N/A   Mostly Cloudy
4:35 PM 38.5 °F 33.4 °F 29.1 °F 69% 29.75 in 10.0 mi SSE 6.9 mph - N/A   Overcast
4:55 PM 39.4 °F 34.5 °F 29.8 °F 69% 29.75 in 10.0 mi SSE 6.9 mph - N/A   Overcast
5:15 PM 37.9 °F - 29.5 °F 72% 29.74 in 10.0 mi Calm Calm - N/A   Mostly Cloudy
5:35 PM 37.4 °F 34.9 °F 30.0 °F 75% 29.75 in 10.0 mi SSW 3.5 mph - N/A   Mostly Cloudy
5:55 PM 36.5 °F 33.9 °F 32.0 °F 84% 29.73 in 10.0 mi South 3.5 mph - N/A   Overcast
6:15 PM 36.1 °F 29.9 °F 32.0 °F 85% 29.74 in 10.0 mi SW 8.1 mph - N/A   Overcast
6:35 PM 34.3 °F 28.4 °F 30.6 °F 86% 29.75 in 1.2 mi West 6.9 mph 16.1 mph N/A Snow Light Snow
6:55 PM 33.1 °F 30.0 °F 31.3 °F 93% 29.75 in 1.2 mi NNW 3.5 mph - N/A Snow Snow
7:15 PM 32.7 °F 25.7 °F 31.6 °F 96% 29.76 in 2.0 mi WNW 8.1 mph - N/A Snow Light Snow
7:35 PM 32.0 °F - 30.7 °F 95% 29.76 in 1.2 mi Calm Calm - N/A Snow Light Snow
7:55 PM 32.0 °F - 27.3 °F 83% 29.75 in 10.0 mi Calm Calm - N/A Snow Light Snow
8:15 PM 31.8 °F 26.2 °F 25.5 °F 78% 29.76 in 10.0 mi West 5.8 mph - N/A   Overcast
8:35 PM 32.0 °F 26.4 °F 27.5 °F 83% 29.76 in 10.0 mi NNW 5.8 mph - N/A   Overcast
8:55 PM 30.7 °F 20.0 °F 23.0 °F 73% 29.77 in 10.0 mi West 15.0 mph 20.7 mph N/A   Overcast
9:15 PM 30.2 °F 17.4 °F 22.5 °F 73% 29.77 in 10.0 mi West 20.7 mph 27.6 mph N/A   Mostly Cloudy
9:35 PM 30.2 °F 19.3 °F 22.6 °F 73% 29.78 in 10.0 mi West 15.0 mph 24.2 mph N/A   Mostly Cloudy
9:55 PM 29.5 °F 17.2 °F 22.1 °F 74% 29.77 in 10.0 mi West 18.4 mph 24.2 mph N/A   Scattered Clouds
10:15 PM 29.3 °F 17.3 °F 21.9 °F 74% 29.78 in 10.0 mi West 17.3 mph 23.0 mph N/A   Mostly Cloudy
10:35 PM 30.0 °F 18.3 °F 21.9 °F 72% 29.78 in 10.0 mi West 17.3 mph 21.9 mph N/A   Overcast
10:55 PM 30.2 °F 20.8 °F 21.6 °F 70% 29.79 in 10.0 mi WNW 11.5 mph 20.7 mph N/A   Overcast
11:15 PM 30.2 °F 18.9 °F 22.8 °F 74% 29.79 in 10.0 mi WNW 16.1 mph 23.0 mph N/A   Overcast
11:35 PM 30.2 °F 24.3 °F 19.4 °F 64% 29.79 in 10.0 mi NNW 5.8 mph 24.2 mph N/A   Overcast
11:55 PM 30.0 °F 26.5 °F 24.6 °F 80% 29.81 in 10.0 mi NNW 3.5 mph - N/A   Overcast